Regional Weather Roundup
Issued by NWS

Home | Current Version | Previous Version | Text Only | Print | Product List | Glossary Off
Versions: 1 2 3 4 5 6 7 8 9 10 11 12 13 14 15 16 17 18 19 20 21 22 23 24 25 26 27 28 29 30 31 32 33 34 35 36 37 38 39 40 41 42 43 44 45 46 47 48 49 50

000
ASUS43 KFSD 171002
RWRSD

WEATHER ROUNDUP FOR SOUTH DAKOTA
NATIONAL WEATHER SERVICE SIOUX FALLS SD
500 AM CDT THU AUG 17 2017

NOTE: "FAIR" INDICATES FEW OR NO CLOUDS BELOW 12,000 FEET WITH NO
SIGNIFICANT WEATHER AND/OR OBSTRUCTIONS TO VISIBILITY.


SDZ001>005-009-010-012>017-171100-
NORTHWEST AND NORTH CENTRAL SOUTH DAKOTA

CITY           SKY/WX    TMP DP  RH WIND       PRES   REMARKS
BUFFALO          N/A     56  49  77 S12       29.85S
FAITH            N/A     58  49  72 S10       29.93S
MOBRIDGE       CLEAR     55  54  96 N5        29.88S FOG
$$

SDZ012>016-024>037-041>051-057-063-072>074-171100-
SOUTHWEST AND SOUTH CENTRAL SOUTH DAKOTA

CITY           SKY/WX    TMP DP  RH WIND       PRES   REMARKS
RAPID CTY ARPT CLEAR     55  48  77 SE6       29.95F
PIERRE         CLEAR     55  50  83 SW5       29.90S
CUSTER         CLEAR     51  42  71 W6        30.09S
ELLSWORTH AFB  CLEAR     58  48  69 S3        29.94F
PHILIP         CLEAR     49  48  97 W3        29.94S
PINE RIDGE     CLEAR     49  47  93 CALM      30.00S
SPEARFISH      FAIR      70  37  30 SW20G26   29.95F
WINNER         FAIR      57  50  77 SW8       29.93S
$$

SDZ004>011-016>023-039-040-171100-
NORTHEAST SOUTH DAKOTA

CITY           SKY/WX    TMP DP  RH WIND       PRES   REMARKS
ABERDEEN       CLEAR     58  57  97 NW8       29.84R
WATERTOWN      CLOUDY    61  60  97 NW15      29.77S
BROOKINGS      CLOUDY    63  60  90 NW15      29.77R
SISSETON         N/A     63  61  93 N16G25    29.75R
$$

SDZ017-020-022-023-036>040-048>070-171100-
SOUTHEAST SOUTH DAKOTA

CITY           SKY/WX    TMP DP  RH WIND       PRES   REMARKS
SIOUX FALLS    CLOUDY    65  63  93 NW13G23   29.78R
HURON          CLEAR     57  56  96 NW13      29.84R
CHAMBERLAIN    CLEAR     58  57  97 W8        29.91R
MITCHELL       CLEAR     59  57  93 W10       29.84S
YANKTON        CLEAR     60  58  92 W10       29.84
$$

ABBREVIATIONS USED IN REMARKS
   TC - TEMPERATURE IN CELSIUS
  WCI - WIND CHILL INDEX
   HX - HEAT INDEX
  VSB - VISIBILITY




USA.gov is the U.S. government's official web portal to all federal, state and local government web resources and services.